Location: Pinon Hills
(34.4429°N, 117.6403°W)
Time: 05:15:45
(UTC-07:00)

Amateur Radio Satellites - All Passes

Search period start: 25 September 2016 04:45
Search period end: 26 September 2016 04:45
Location: Pinon Hills, 34.4429°N, 117.6403°W

Satellite Date Start Highest point End Downlink Frequencies (MHz)
Time Altitude Azimuth
AIST 2 25 Sep 04:46:17 04:50:19 57° 301° (WNW) 04:54:23 435.215
YUBILEINY 25 Sep 04:46:38 04:54:30 36° 285° (WNW) 05:02:24 435.215
AIST 1 25 Sep 04:54:37 04:57:42 19° 88° (E) 05:00:48
STARS 25 Sep 05:00:04 05:04:20 51° 260° (W) 05:08:37 437.465
MOZHAYETS 4 25 Sep 05:08:05 05:10:28 14° 267° (W) 05:12:51
ISS 25 Sep 05:09:19 05:12:31 49° 226° (SW) 05:15:42 145.825
CUSAT 1 25 Sep 05:30:58 05:36:33 21° 66° (ENE) 05:41:35 437.405
HORYU 2 25 Sep 05:32:31 05:36:40 38° 99° (E) 05:40:48 437.375
Cosmos 2504 25 Sep 05:43:56 05:50:34 33° 284° (WNW) 05:56:59 435.465 / 435.565
NOAA 15 25 Sep 05:49:36 05:52:30 15° 93° (E) 05:55:22 137.62
Cubesat XI-IV 25 Sep 05:54:45 05:57:11 13° 92° (E) 05:59:37 437.490
PCSat 25 Sep 05:55:29 06:00:26 36° 302° (WNW) 06:05:24 145.827
CUTE-I 25 Sep 05:55:46 05:58:24 14° 93° (E) 06:01:01 437.470
BRITE-PL 25 Sep 05:59:31 06:04:05 41° 97° (E) 06:08:18 437.365/2234.400
AO-7 25 Sep 06:01:52 06:08:51 32° 299° (WNW) 06:15:51 29.400- 29.500
GOMX 1 25 Sep 06:06:01 06:08:54 17° 93° (E) 06:11:41 467.674
STRAND 1 25 Sep 06:06:21 06:08:42 13° 64° (ENE) 06:11:03 437.568
RS-15 25 Sep 06:08:31 06:20:59 87° 63° (ENE) 06:33:03 29.354- 29.394
NOAA 18 25 Sep 06:10:00 06:13:05 15° 93° (E) 06:16:09 137.9125
AO-85 25 Sep 06:16:36 06:19:32 19° 50° (NE) 06:22:22 145.980
CUBESAT XI-V 25 Sep 06:18:04 06:21:33 20° 266° (W) 06:25:03 437.345
LilacSat-2 25 Sep 06:25:29 06:28:42 25° 97° (E) 06:31:53 437.200
DANDE 25 Sep 06:29:46 06:36:50 30° 71° (ENE) 06:43:36 436.750
AIST 1 25 Sep 06:31:16 06:35:03 28° 282° (WNW) 06:38:51
DOVE 4 25 Sep 06:43:06 06:45:52 17° 94° (E) 06:48:38 437.250
HORYU 2 25 Sep 07:10:05 07:12:52 17° 293° (WNW) 07:15:41 437.375
CUSAT 1 25 Sep 07:11:37 07:19:20 68° 266° (W) 07:25:46 437.405
GONETS M04 25 Sep 07:18:08 07:20:25 11° 76° (ENE) 07:22:40
NOAA 15 25 Sep 07:27:22 07:32:33 56° 287° (WNW) 07:37:42 137.62
Cubesat XI-IV 25 Sep 07:32:19 07:37:36 63° 286° (WNW) 07:42:53 437.490
CUTE-I 25 Sep 07:33:30 07:38:46 61° 287° (WNW) 07:44:02 437.470
BRITE-PL 25 Sep 07:39:09 07:42:07 16° 295° (WNW) 07:44:57 437.365/2234.400
STRAND 1 25 Sep 07:42:15 07:47:17 63° 258° (WSW) 07:52:21 437.568
GOMX 1 25 Sep 07:43:10 07:47:05 31° 289° (WNW) 07:50:49 467.674
NOAA 18 25 Sep 07:48:41 07:54:02 57° 288° (WNW) 07:59:23 137.9125
CUTE 1.7 + AOD 2 25 Sep 07:49:56 07:52:55 18° 94° (E) 07:55:52 437.475
CANX-2 25 Sep 07:50:16 07:53:35 21° 95° (E) 07:56:53 2200.000
AO-85 25 Sep 07:56:28 07:59:59 29° 248° (WSW) 08:03:21 145.980
SEEDS 25 Sep 07:57:34 08:00:00 15° 93° (E) 08:02:25 437.485
LilacSat-2 25 Sep 08:00:11 08:02:46 18° 290° (WNW) 08:05:22 437.200
O/OREOS (USA 219) 25 Sep 08:02:51 08:07:22 73° 291° (WNW) 08:11:57 437.305
DANDE 25 Sep 08:11:49 08:19:59 58° 268° (W) 08:27:36 436.750
CINEMA 3 25 Sep 08:16:10 08:20:15 53° 100° (E) 08:24:24 145.822/145.860
DOVE 4 25 Sep 08:20:00 08:23:37 29° 288° (WNW) 08:27:10 437.250
HO-68 25 Sep 08:21:14 08:28:07 49° 101° (E) 08:34:58 435.675
RS-15 25 Sep 08:23:35 08:31:49 22° 261° (W) 08:39:57 29.354- 29.394
AAUSAT CUBESAT 2 25 Sep 08:28:38 08:31:29 18° 94° (E) 08:34:20 437.432
UWE-3 25 Sep 08:33:46 08:35:47 13° 93° (E) 08:37:48 435.000/436.395/437.385
PRISM 25 Sep 09:02:01 09:06:10 90° 272° (W) 09:10:22 437.425
Cosmos 2499 25 Sep 09:02:29 09:09:36 59° 92° (E) 09:16:30 435.465 / 435.565
GONETS M04 25 Sep 09:06:50 09:15:37 77° 94° (E) 09:24:29
COMPASS 1 25 Sep 09:08:43 09:12:57 76° 101° (ESE) 09:17:09 437.405
ZACube-1 25 Sep 09:08:52 09:12:10 21° 96° (E) 09:15:31 437.345
ANTELSAT 25 Sep 09:12:34 09:13:59 11° 66° (ENE) 09:15:24 437.575/2403.000
Oscar 11 25 Sep 09:12:40 09:16:06 22° 95° (E) 09:19:32 145.826/435.025
CUTE 1.7 + AOD 2 25 Sep 09:24:59 09:28:45 31° 288° (WNW) 09:32:31 437.475
CANX-2 25 Sep 09:25:46 09:29:21 26° 289° (WNW) 09:32:55 2200.000
SEEDS 25 Sep 09:31:52 09:35:47 36° 287° (WNW) 09:39:41 437.485
TIGRISAT 25 Sep 09:32:13 09:35:12 19° 69° (ENE) 09:38:11 435.000
CUBEBUG 2 25 Sep 09:43:48 09:47:58 54° 285° (WNW) 09:52:15 437.445
CINEMA 3 25 Sep 09:56:22 09:56:56 10° 294° (WNW) 09:57:29 145.822/145.860
HUMSAT D 25 Sep 09:56:34 09:58:28 13° 93° (E) 10:00:23 437.325/437.525
AAUSAT CUBESAT 2 25 Sep 10:03:18 10:06:58 30° 288° (WNW) 10:10:36 437.432
FUNcube-1 25 Sep 10:03:49 10:08:08 89° 298° (WNW) 10:12:33 145.935
UWE-3 25 Sep 10:08:18 10:12:22 43° 286° (WNW) 10:16:33 435.000/436.395/437.385
HO-68 25 Sep 10:09:37 10:15:27 28° 296° (WNW) 10:21:17 435.675
UNISAT 6 25 Sep 10:10:27 10:14:40 58° 75° (ENE) 10:18:51 437.425
DELFI C3 25 Sep 10:13:10 10:17:01 43° 99° (E) 10:20:50 145.870
BEESAT 3 25 Sep 10:23:32 10:26:56 26° 55° (NE) 10:30:18 437.485
PHONESAT 2.4 25 Sep 10:35:12 10:37:01 15° 144° (SE) 10:38:50 2401.200-2431.200
POPSAT HIP 1 25 Sep 10:39:39 10:41:48 14° 67° (ENE) 10:43:56 437.405
ZACube-1 25 Sep 10:44:45 10:48:23 27° 288° (WNW) 10:52:05 437.345
ANTELSAT 25 Sep 10:46:03 10:50:13 50° 260° (W) 10:54:23 437.575/2403.000
JAS-2 25 Sep 10:46:59 10:51:30 21° 61° (ENE) 10:56:22 435.910
Oscar 11 25 Sep 10:48:32 10:52:09 26° 289° (WNW) 10:55:44 145.826/435.025
NANOSAT C BR1 25 Sep 10:56:53 11:00:03 21° 70° (ENE) 11:03:13 145.865
Cosmos 2499 25 Sep 10:58:05 11:03:05 20° 288° (WNW) 11:08:02 435.465 / 435.565
GONETS M04 25 Sep 11:07:21 11:13:18 20° 292° (WNW) 11:19:18
TIGRISAT 25 Sep 11:07:55 11:11:40 29° 262° (W) 11:15:25 435.000
BEESAT 2 25 Sep 11:12:41 11:16:32 45° 58° (ENE) 11:20:23 435.950
QB50P2 25 Sep 11:16:35 11:20:34 41° 73° (ENE) 11:24:32 145.880/145.840
POLYITAN 1 25 Sep 11:18:51 11:22:48 42° 74° (ENE) 11:26:46 437.675
ESTCUBE 1 25 Sep 11:24:38 11:27:59 20° 95° (E) 11:31:17 437.505/2401.250
HUMSAT D 25 Sep 11:30:12 11:34:14 43° 286° (WNW) 11:38:17 437.325/437.525
VELOX 1 25 Sep 11:37:40 11:39:21 12° 93° (E) 11:41:03 145.980
CUBEBUG 1 25 Sep 11:47:54 11:51:16 22° 95° (E) 11:54:37 437.445
DELFI C3 25 Sep 11:49:58 11:51:24 12° 293° (WNW) 11:52:51 145.870
QB50P1 25 Sep 11:59:45 12:03:55 59° 260° (W) 12:08:04 145.935-145.965
DUCHIFAT 1 25 Sep 12:00:48 12:04:57 67° 259° (WSW) 12:09:07 145.980
BEESAT 3 25 Sep 12:01:25 12:04:24 21° 249° (WSW) 12:07:23 437.485
PHONESAT 2.4 25 Sep 12:09:56 12:12:53 74° 339° (NNW) 12:15:50 2401.200-2431.200
POPSAT HIP 1 25 Sep 12:13:13 12:17:11 40° 261° (W) 12:21:10 437.405
BUGSAT 1 25 Sep 12:14:58 12:19:05 67° 75° (ENE) 12:23:08 437.445
AISAT 25 Sep 12:27:50 12:32:08 52° 100° (E) 12:36:24 437.250
JAS-2 25 Sep 12:29:43 12:35:45 61° 260° (W) 12:42:39 435.910
NANOSAT C BR1 25 Sep 12:32:07 12:35:36 25° 263° (W) 12:39:06 145.865
50 SAT 25 Sep 12:33:06 12:36:45 58° 101° (E) 12:40:20 437.505
AUBIESAT-1 25 Sep 12:38:49 12:41:39 26° 103° (ESE) 12:44:29 437.475
SPROUT 25 Sep 12:41:37 12:45:35 37° 98° (E) 12:49:31 437.525
UKube-1 25 Sep 12:50:00 12:54:04 40° 99° (E) 12:58:06 .
BEESAT 2 25 Sep 12:52:25 12:53:55 12° 252° (WSW) 12:55:24 435.950
QB50P2 25 Sep 12:54:39 12:56:30 13° 267° (W) 12:58:23 145.880/145.840
POLYITAN 1 25 Sep 12:56:56 12:58:45 13° 267° (W) 13:00:35 437.675
ESTCUBE 1 25 Sep 13:00:47 13:04:46 31° 289° (WNW) 13:08:44 437.505/2401.250
Oscar 19 25 Sep 13:05:23 13:10:18 45° 72° (ENE) 13:15:15 437.125/150
PCSat 25 Sep 13:05:42 13:07:31 12° 47° (NE) 13:09:20 145.827
YUBILEINY 25 Sep 13:05:52 13:10:55 16° 67° (ENE) 13:15:56 435.215
AIST 2 25 Sep 13:11:03 13:14:45 29° 55° (NE) 13:18:27 435.215
VELOX 1 25 Sep 13:11:48 13:16:02 48° 286° (WNW) 13:20:15 145.980
DX 1 25 Sep 13:13:01 13:17:21 77° 285° (WNW) 13:21:40 434.975-435.025
M-CUBED/EXP-1 PRIME 25 Sep 13:13:24 13:16:38 64° 289° (WNW) 13:19:51 437.505
CUBEBUG 1 25 Sep 13:23:53 13:27:29 26° 290° (WNW) 13:31:03 437.445
Gurwin Techsat 1B 25 Sep 13:40:58 13:46:01 46° 72° (ENE) 13:51:05 435.225
PHONESAT 2.4 25 Sep 13:46:44 13:49:17 25° 353° (N) 13:51:52 2401.200-2431.200
ITAMSAT 1 25 Sep 13:54:35 13:57:42 16° 65° (ENE) 14:00:49 435.822/435.867
AISAT 25 Sep 14:06:28 14:08:06 12° 295° (WNW) 14:09:43 437.250
TISAT 1 25 Sep 14:11:48 14:15:58 82° 100° (E) 14:20:08 437.305
AUBIESAT-1 25 Sep 14:14:28 14:15:53 12° 296° (WNW) 14:17:17 437.475
SPROUT 25 Sep 14:18:43 14:21:10 15° 292° (WNW) 14:23:37 437.525
UKube-1 25 Sep 14:27:20 14:29:44 15° 293° (WNW) 14:32:07 .
PCSat 25 Sep 14:46:16 14:51:43 85° 64° (ENE) 14:57:07 145.827
Oscar 19 25 Sep 14:46:18 14:49:46 18° 266° (W) 14:53:16 437.125/150
SO-50 25 Sep 14:46:38 14:49:57 19° 109° (ESE) 14:53:15 436.795
ITUPSAT 1 25 Sep 14:46:41 14:50:58 32° 98° (E) 14:55:14 437.325
Cosmos 2491 25 Sep 14:49:41 14:58:01 50° 89° (E) 15:06:23 435.465 / 435.565
AIST 2 25 Sep 14:49:53 14:53:01 21° 250° (WSW) 14:56:09 435.215
YUBILEINY 25 Sep 15:00:02 15:08:46 86° 265° (W) 15:17:28 435.215
SWISSCUBE 25 Sep 15:00:58 15:05:41 53° 101° (E) 15:10:21 437.505
AO-7 25 Sep 15:03:22 15:11:20 52° 67° (ENE) 15:19:17 29.400- 29.500
BEESAT 25 Sep 15:14:12 15:18:59 67° 102° (ESE) 15:23:44 436.000
Gurwin Techsat 1B 25 Sep 15:22:36 15:26:08 18° 266° (W) 15:29:42 435.225
PHONESAT 2.4 25 Sep 15:23:15 15:25:55 29° 10° (N) 15:28:34 2401.200-2431.200
MOZHAYETS 4 25 Sep 15:28:47 15:31:15 14° 93° (E) 15:33:42
ITAMSAT 1 25 Sep 15:31:40 15:36:41 52° 259° (W) 15:41:45 435.822/435.867
Cosmos 2504 25 Sep 15:38:16 15:45:41 66° 82° (E) 15:53:35 435.465 / 435.565
KKS-1 25 Sep 16:12:20 16:16:03 26° 97° (E) 16:19:45 437.445
ITUPSAT 1 25 Sep 16:24:52 16:28:35 23° 292° (WNW) 16:32:17 437.325
SO-50 25 Sep 16:25:29 16:30:05 43° 303° (WNW) 16:34:41 436.795
HORYU 2 25 Sep 16:27:32 16:31:00 23° 69° (ENE) 16:34:28 437.375
O/OREOS (USA 219) 25 Sep 16:40:17 16:41:08 10° 56° (ENE) 16:41:58 437.305
SWISSCUBE 25 Sep 16:40:30 16:42:58 14° 295° (WNW) 16:45:26 437.505
AIST 1 25 Sep 16:41:21 16:45:29 46° 81° (E) 16:49:34
CUBESAT XI-V 25 Sep 16:42:59 16:43:42 10° 91° (E) 16:44:25 437.345
Cosmos 2491 25 Sep 16:47:34 16:55:02 31° 287° (WNW) 17:02:37 435.465 / 435.565
STARS 25 Sep 16:53:00 16:57:01 35° 99° (E) 17:01:00 437.465
BEESAT 25 Sep 16:54:41 16:56:09 11° 296° (WNW) 16:57:37 436.000
AO-7 25 Sep 16:57:13 17:04:16 30° 262° (W) 17:11:20 29.400- 29.500
PHONESAT 2.4 25 Sep 16:59:15 17:02:13 74° 206° (SSW) 17:05:11 2401.200-2431.200
YUBILEINY 25 Sep 17:00:33 17:04:10 13° 282° (WNW) 17:07:47 435.215
MOZHAYETS 4 25 Sep 17:04:08 17:08:35 46° 286° (WNW) 17:13:00
BRITE-PL 25 Sep 17:05:15 17:10:27 38° 72° (ENE) 17:15:38 437.365/2234.400
NOAA 15 25 Sep 17:06:09 17:09:37 18° 65° (ENE) 17:13:06 137.62
GOMX 1 25 Sep 17:09:57 17:13:30 18° 67° (ENE) 17:16:59 467.674
Cubesat XI-IV 25 Sep 17:13:13 17:16:26 17° 65° (ENE) 17:19:40 437.490
CUTE-I 25 Sep 17:14:07 17:17:26 17° 65° (ENE) 17:20:45 437.470
NOAA 18 25 Sep 17:32:29 17:36:36 22° 66° (ENE) 17:40:41 137.9125
Cosmos 2504 25 Sep 17:33:30 17:38:22 19° 276° (W) 17:43:26 435.465 / 435.565
DOVE 4 25 Sep 17:45:03 17:48:04 16° 68° (ENE) 17:51:00 437.250
KKS-1 25 Sep 17:48:59 17:52:28 23° 291° (WNW) 17:55:54 437.445
HORYU 2 25 Sep 18:03:43 18:07:24 26° 263° (W) 18:11:05 437.375
O/OREOS (USA 219) 25 Sep 18:16:26 18:21:01 70° 252° (WSW) 18:25:34 437.305
CUBESAT XI-V 25 Sep 18:16:46 18:21:25 62° 285° (WNW) 18:26:01 437.345
RS-15 25 Sep 18:20:54 18:26:55 16° 97° (E) 18:33:03 29.354- 29.394
AIST 1 25 Sep 18:21:35 18:22:33 11° 275° (W) 18:23:31
CUSAT 1 25 Sep 18:28:09 18:32:14 20° 81° (E) 18:36:56 437.405
STARS 25 Sep 18:30:14 18:33:03 17° 292° (WNW) 18:35:52 437.465
LilacSat-2 25 Sep 18:37:19 18:41:01 58° 259° (W) 18:44:45 437.200
CANX-2 25 Sep 18:42:44 18:42:53 10° 65° (ENE) 18:43:03 2200.000
NOAA 15 25 Sep 18:43:50 18:48:57 50° 260° (W) 18:54:07 137.62
BRITE-PL 25 Sep 18:44:14 18:48:53 26° 265° (W) 18:53:34 437.365/2234.400
GOMX 1 25 Sep 18:45:50 18:51:09 52° 261° (W) 18:56:19 467.674
HO-68 25 Sep 18:46:58 18:52:37 26° 63° (ENE) 18:58:16 435.675
Cubesat XI-IV 25 Sep 18:50:50 18:56:00 54° 259° (W) 19:01:13 437.490
CUTE-I 25 Sep 18:51:51 18:56:59 52° 259° (W) 19:02:11 437.470
Cosmos 2499 25 Sep 18:58:31 19:02:45 15° 69° (ENE) 19:07:08 435.465 / 435.565
NOAA 18 25 Sep 19:11:46 19:16:55 42° 260° (W) 19:22:05 137.9125
CINEMA 3 25 Sep 19:14:17 19:18:21 33° 73° (ENE) 19:22:17 145.822/145.860
DOVE 4 25 Sep 19:20:22 19:25:22 50° 260° (W) 19:30:09 437.250
GONETS M04 25 Sep 19:22:23 19:30:02 32° 74° (ENE) 19:37:33
DANDE 25 Sep 19:34:48 19:38:27 23° 83° (E) 19:42:57 436.750
COMPASS 1 25 Sep 19:56:02 19:59:40 30° 72° (ENE) 20:03:21 437.405
STRAND 1 25 Sep 19:56:15 20:01:20 59° 101° (E) 20:06:25 437.568
ZACube-1 25 Sep 20:04:04 20:04:40 10° 66° (ENE) 20:05:17 437.345
Oscar 11 25 Sep 20:05:55 20:07:23 12° 66° (ENE) 20:08:52 145.826/435.025
CUSAT 1 25 Sep 20:07:47 20:13:19 55° 283° (WNW) 20:20:22 437.405
ISS 25 Sep 20:10:46 20:13:31 26° 130° (SE) 20:16:17 145.825
CUTE 1.7 + AOD 2 25 Sep 20:13:14 20:17:25 70° 258° (WSW) 20:21:40 437.475
CANX-2 25 Sep 20:14:02 20:18:11 58° 260° (W) 20:22:22 2200.000
SEEDS 25 Sep 20:19:16 20:23:27 88° 260° (W) 20:27:41 437.485
RS-15 25 Sep 20:25:50 20:37:17 82° 115° (ESE) 20:49:25 29.354- 29.394
AO-85 25 Sep 20:27:01 20:30:37 19° 109° (ESE) 20:34:06 145.980
HO-68 25 Sep 20:32:54 20:39:51 54° 258° (WSW) 20:46:52 435.675
CUBEBUG 2 25 Sep 20:38:07 20:42:22 77° 78° (ENE) 20:46:34 437.445
PRISM 25 Sep 20:48:21 20:50:53 16° 94° (E) 20:53:24 437.425
Cosmos 2499 25 Sep 20:48:56 20:56:32 83° 265° (W) 21:04:44 435.465 / 435.565
AAUSAT CUBESAT 2 25 Sep 20:49:01 20:53:09 75° 258° (WSW) 20:57:20 437.432
JUGNU 25 Sep 20:51:08 20:53:55 13° 168° (SSE) 20:56:41 437.505
CINEMA 3 25 Sep 20:52:19 20:55:30 18° 265° (W) 20:58:36 145.822/145.860
FUNcube-1 25 Sep 20:55:55 20:59:49 42° 74° (ENE) 21:03:43 145.935
DELFI C3 25 Sep 20:56:32 20:59:00 16° 69° (ENE) 21:01:29 145.870
UWE-3 25 Sep 21:01:25 21:05:37 87° 252° (WSW) 21:09:47 435.000/436.395/437.385
DANDE 25 Sep 21:16:39 21:20:51 32° 289° (WNW) 21:26:15 436.750
GONETS M04 25 Sep 21:18:40 21:27:00 49° 271° (W) 21:35:15
COMPASS 1 25 Sep 21:32:28 21:35:14 17° 266° (W) 21:38:01 437.405
ZACube-1 25 Sep 21:36:25 21:40:28 52° 260° (W) 21:44:31 437.345
STRAND 1 25 Sep 21:37:15 21:39:58 15° 296° (WNW) 21:42:42 437.568
Oscar 11 25 Sep 21:38:50 21:43:01 52° 260° (W) 21:47:14 145.826/435.025
ISS 25 Sep 21:47:14 21:49:57 24° 325° (NW) 21:52:42 145.825
AO-85 25 Sep 22:05:42 22:10:47 49° 302° (WNW) 22:15:36 145.980
UNISAT 6 25 Sep 22:06:32 22:09:18 16° 94° (E) 22:12:05 437.425
HUMSAT D 25 Sep 22:17:27 22:21:29 78° 77° (ENE) 22:25:35 437.325/437.525
ESTCUBE 1 25 Sep 22:22:07 22:24:06 13° 66° (ENE) 22:26:06 437.505/2401.250
PRISM 25 Sep 22:22:32 22:26:13 32° 288° (WNW) 22:29:53 437.425
DELFI C3 25 Sep 22:30:02 22:33:33 30° 263° (W) 22:37:08 145.870
FUNcube-1 25 Sep 22:34:41 22:36:13 12° 267° (W) 22:37:47 145.935
JUGNU 25 Sep 22:38:12 22:42:12 19° 177° (S) 22:46:11 437.505
ANTELSAT 25 Sep 22:40:50 22:45:00 40° 99° (E) 22:49:14 437.575/2403.000
RS-15 25 Sep 22:41:17 22:51:12 30° 319° (NW) 23:01:33 29.354- 29.394
CUBEBUG 1 25 Sep 22:41:47 22:43:46 13° 66° (ENE) 22:45:45 437.445
Cosmos 2499 25 Sep 22:46:31 22:48:34 11° 280° (W) 22:50:39 435.465 / 435.565
TIGRISAT 25 Sep 23:01:51 23:06:15 69° 101° (ESE) 23:10:43 435.000
50 SAT 25 Sep 23:07:38 23:09:42 15° 69° (ENE) 23:11:48 437.505
AUBIESAT-1 25 Sep 23:21:14 23:24:34 23° 67° (ENE) 23:27:43 437.475
AISAT 25 Sep 23:21:45 23:25:38 30° 71° (ENE) 23:29:32 437.250
SRMSAT 25 Sep 23:31:02 23:34:11 15° 169° (S) 23:37:20 437.500
SPROUT 25 Sep 23:32:23 23:35:23 19° 69° (ENE) 23:38:23 437.525
UKube-1 25 Sep 23:41:30 23:44:50 22° 69° (ENE) 23:48:12 .
UNISAT 6 25 Sep 23:42:01 23:46:04 37° 287° (WNW) 23:50:11 437.425
JAS-2 25 Sep 23:43:20 23:49:52 28° 93° (E) 23:56:06 435.910
QB50P1 25 Sep 23:48:17 23:51:53 27° 97° (E) 23:55:29 145.935-145.965
DUCHIFAT 1 25 Sep 23:48:53 23:52:17 24° 96° (E) 23:55:40 145.980
M-CUBED/EXP-1 PRIME 25 Sep 23:55:30 23:59:49 81° 72° (ENE) 00:03:50 437.505
ESTCUBE 1 25 Sep 23:56:00 00:00:24 52° 260° (W) 00:04:51 437.505/2401.250
POPSAT HIP 1 26 Sep 00:01:18 00:05:14 39° 99° (E) 00:09:11 437.405
BUGSAT 1 26 Sep 00:02:17 00:03:50 12° 93° (E) 00:05:22 437.445
DX 1 26 Sep 00:04:38 00:08:55 56° 74° (ENE) 00:13:12 434.975-435.025
VELOX 1 26 Sep 00:04:55 00:09:23 88° 264° (W) 00:13:51 145.980
CUBEBUG 1 26 Sep 00:15:17 00:19:35 49° 260° (W) 00:23:53 437.445
ANTELSAT 26 Sep 00:18:47 00:21:21 15° 292° (WNW) 00:23:58 437.575/2403.000
NANOSAT C BR1 26 Sep 00:19:04 00:23:14 63° 101° (ESE) 00:27:23 145.865
JUGNU 26 Sep 00:26:51 00:30:31 17° 188° (S) 00:34:09 437.505
50 SAT 26 Sep 00:39:52 00:42:57 26° 263° (W) 00:46:04 437.505
QB50P2 26 Sep 00:40:20 00:44:29 60° 285° (WNW) 00:48:39 145.880/145.840
POLYITAN 1 26 Sep 00:42:34 00:46:43 60° 285° (WNW) 00:50:52 437.675
AUBIESAT-1 26 Sep 00:55:31 00:58:53 23° 258° (WSW) 01:02:06 437.475
AISAT 26 Sep 00:58:48 01:02:05 20° 265° (W) 01:05:22 437.250
TISAT 1 26 Sep 00:59:52 01:03:43 36° 72° (ENE) 01:07:32 437.305
SO-50 26 Sep 01:00:11 01:04:42 63° 59° (ENE) 01:09:06 436.795
BEESAT 2 26 Sep 01:02:01 01:04:46 18° 110° (ESE) 01:07:33 435.950
RS-15 26 Sep 01:04:41 01:09:48 13° 354° (N) 01:14:58 29.354- 29.394
Cosmos 2491 26 Sep 01:05:43 01:11:52 20° 69° (ENE) 01:17:57 435.465 / 435.565
SPROUT 26 Sep 01:07:20 01:11:04 30° 263° (W) 01:14:50 437.525
UKube-1 26 Sep 01:17:05 01:20:42 26° 263° (W) 01:24:21 .
SRMSAT 26 Sep 01:18:35 01:22:38 19° 179° (S) 01:26:42 437.500
Oscar 19 26 Sep 01:21:19 01:25:10 21° 95° (E) 01:28:58 437.125/150
QB50P1 26 Sep 01:24:24 01:27:27 20° 291° (WNW) 01:30:30 145.935-145.965
DUCHIFAT 1 26 Sep 01:24:34 01:27:49 22° 290° (WNW) 01:31:04 145.980
JAS-2 26 Sep 01:27:28 01:35:04 54° 289° (WNW) 01:42:18 435.910
BUGSAT 1 26 Sep 01:35:35 01:39:21 39° 286° (WNW) 01:43:06 437.445
POPSAT HIP 1 26 Sep 01:38:23 01:40:39 14° 293° (WNW) 01:42:56 437.405
DX 1 26 Sep 01:44:57 01:45:23 10° 268° (W) 01:45:50 434.975-435.025
BEESAT 3 26 Sep 01:47:26 01:51:13 51° 301° (WNW) 01:55:04 437.485
ITUPSAT 1 26 Sep 01:50:16 01:54:08 25° 69° (ENE) 01:58:01 437.325
Gurwin Techsat 1B 26 Sep 02:01:18 02:05:36 25° 96° (E) 02:09:52 435.225
YUBILEINY 26 Sep 02:02:37 02:08:47 22° 82° (E) 02:14:55 435.215
SWISSCUBE 26 Sep 02:03:55 02:08:20 40° 72° (ENE) 02:12:47 437.505
BEESAT 26 Sep 02:16:58 02:21:33 50° 73° (ENE) 02:26:09 436.000
TISAT 1 26 Sep 02:37:05 02:39:26 15° 266° (W) 02:41:47 437.305
BEESAT 2 26 Sep 02:38:55 02:42:21 28° 305° (NW) 02:45:51 435.950
ISS 26 Sep 02:42:42 02:43:30 11° 25° (NNE) 02:44:19 145.825
SO-50 26 Sep 02:43:55 02:44:32 10° 254° (WSW) 02:45:09 436.795
Oscar 19 26 Sep 02:59:49 03:04:32 38° 289° (WNW) 03:09:15 437.125/150
Cosmos 2491 26 Sep 03:00:41 03:09:30 75° 267° (W) 03:18:15 435.465 / 435.565
AIST 2 26 Sep 03:06:46 03:08:52 14° 108° (ESE) 03:10:58 435.215
SRMSAT 26 Sep 03:07:35 03:11:07 16° 189° (S) 03:14:38 437.500
KKS-1 26 Sep 03:07:46 03:10:35 17° 67° (ENE) 03:13:24 437.445
AO-7 26 Sep 03:10:30 03:16:06 20° 94° (E) 03:21:40 29.400- 29.500
RS-15 26 Sep 03:20:34 03:29:33 22° 32° (NNE) 03:38:25 29.354- 29.394
ITUPSAT 1 26 Sep 03:27:46 03:31:49 28° 263° (W) 03:35:53 437.325
Gurwin Techsat 1B 26 Sep 03:40:46 03:45:31 34° 290° (WNW) 03:50:16 435.225
PCSat 26 Sep 03:43:01 03:46:34 18° 105° (ESE) 03:50:08 145.827
SWISSCUBE 26 Sep 03:43:12 03:46:15 17° 266° (W) 03:49:19 437.505
STARS 26 Sep 03:46:42 03:49:58 21° 69° (ENE) 03:53:15 437.465
ITAMSAT 1 26 Sep 03:47:51 03:53:05 74° 102° (ESE) 03:58:18 435.822/435.867
YUBILEINY 26 Sep 03:55:57 04:04:42 68° 279° (W) 04:13:26 435.215
BEESAT 26 Sep 03:57:15 03:59:33 13° 267° (W) 04:01:53 436.000
MOZHAYETS 4 26 Sep 04:01:56 04:06:29 75° 258° (WSW) 04:11:04
Cosmos 2504 26 Sep 04:12:34 04:19:59 61° 93° (E) 04:27:04 435.465 / 435.565
ISS 26 Sep 04:17:13 04:20:29 73° 42° (NE) 04:23:46 145.825
